Showing default

GAOFEN 9, 40894

Orbit data source: Space-Track

GAOFEN 9, 40894 is a payload satellite owned by GGKGJ (CN) in SSO that was launched on Mon, 14 Sep 2015 UTC via a CHANG ZHENG 2D launch vehicle from the Jiuquan Satellite Launch Center, China (JSC). Payload-class satellites include a variety of spacecraft equipped with specific instruments for various scientific and technological missions. These include communications satellites like Starlink; space stations such as the ISS; scientific satellites like the Hubble; Earth observation satellites from companies like Planet Labs, Umbra, and HawkEye 360; GPS; miniature CubeSats for education and research; and military/defense satellites.

Loading next visibility...
Identifier
40894, 2015-047A
Orbit
SSO
Country
Flag of CNCN / PRC
Related business
Manufacturer
DFH
Mission
Operational Defense Imaging
Bus & Motor
CAST-3000, AOCS
Mass
~1,700 kg wet, ~1,200 kg dry
Launch date (UTC)
2015-09-14 (10 years ago)
Launch vehicle
CHANG ZHENG 2D
Launch site
Jiuquan Satellite Launch Center, China (JSC)
Object type
Payload
Rocket body
Debris
Shape & HBR
Box + 2 Pan, 2.0 m
Radar Cross Section
4.991 m², Large (>1 m²)

Expand to show TLE details & history
Last TLE update: 14 hours ago

TLE from 14 hours ago
0 GAOFEN 9
1 40894U 15047A   25259.64801418  .00000933  00000-0  12309-3 0  9990
2 40894  97.6683 302.3112 0026699 319.4115  40.5108 14.82083911539668
Epoch: 2025-09-16T15:33Z
TLE epoch observation values (Epoch: 2025-09-16T15:33:08.425Z)
Latitude
0.00003°
Longitude
73.19079°
Altitude
611.592 km
Speed
7.561 km/s
True Right ascension
20h 09m 14s
True Declination
0° 00' 00"
Sunlit
Object was in full shadow at epoch
Visualization orbit readout
Latitude
Unknown
Longitude
Unknown
Altitude
Unknown
Speed
Unknown
Apparent Right ascension
Unknown
Apparent Declination
Unknown
Sunlit
N/A
Visualization observer readout
Local Sidereal Time
22:24:25
Azimuth
Unknown
Elevation
Unknown
Doppler factor
Unknown
Orbital elements
Apogee altitude
638.465 km
Perigee altitude
601.098 km
Semi-major axis
6,997.919 km
Eccentricity
0.00267
Inclination
97.6683°
RAAN
302.3112°
Arg. of periapsis
319.4115°
True anomaly
40.71005°
Mean anomaly
40.5108°
Eccentric anomaly
40.61037°
Mean motion
3.70757 °/min
Orbital period
97.1 mins
BSTAR
0.00012309
Loading maneuver chart data...
Computing Atmospheric mass density...
Loading historical data...
Loading historical data...
Loading historical data...
Loading historical data...
Loading historical data...
Loading historical data...
Loading historical data...
Other satellites on launch #47 in the year 2015 (2015-09-14 UTC)

Documentation

Showing up to 5 results
|